Location: Medlow Airstrip Trail, Medlow Bath NSW 2780, Australia
(33.6682°S, 150.3233°E)
Time: 03:05:00
(UTC+11:00)

A-11 Canister half - Visible Passes

Search period start: 24 October 2019 00:00
Search period end: 03 November 2019 00:00
Orbit: 1527 x 1682 km, 47.3° (Epoch: 22 October)

Date Brightness Start Highest point End Pass type
(mag) Time Alt. Az. Time Alt. Az. Time Alt. Az.
25 Oct 10.1 05:42:13 10° NNW 05:51:14 44° NE 06:00:31 10° ESE visible
26 Oct 10.1 05:20:46 10° NNW 05:29:38 41° NE 05:38:46 10° ESE visible
27 Oct 10.2 04:59:20 10° NNW 05:08:02 39° NE 05:17:01 10° ESE visible
28 Oct 10.2 04:37:55 10° NNW 04:46:27 36° NE 04:55:14 10° ESE visible
29 Oct 10.2 04:16:43 11° N 04:24:51 34° NE 04:33:27 10° ESE visible
30 Oct 10.2 03:56:38 15° N 04:03:17 32° NE 04:11:39 10° ESE visible
31 Oct 10.2 03:36:29 19° N 03:41:42 30° NE 03:49:50 10° ESE visible
01 Nov 10.2 03:16:15 21° NNE 03:20:08 28° NE 03:28:00 10° ESE visible
01 Nov 9.2 05:14:37 10° NW 05:24:21 87° SW 05:34:29 10° SE visible
02 Nov 10.2 02:55:57 23° NNE 02:58:33 26° NE 03:06:10 10° ESE visible
02 Nov 9.1 04:54:16 15° NW 05:02:42 89° NE 05:12:48 10° SE visible
